Location: Goll?ig?dem
(16.6773°N, 80.7332°E)
Time: 19:45:38
(UTC+00:00)

USA 186 - Pass Details

Date: 19 May 2025
Orbit: 338 x 359 km, 97.0° (Epoch: 19 May)

Event Time Altitude Azimuth Distance (km) Brightness Sun altitude
Exits shadow 14:26:24 11° 25° (NNE) 1,245 4.2 -19.1°
Drops below altitude 10° 14:26:31 10° 24° (NNE) 1,286 4.3 -19.2°
Sets 14:28:38 0° 8° (N) 2,115 5.6 -19.6°
